BEIDOU-2 G8

Last updated on Tue Sep 22 2026 00:03:15 GMT+0000 (Coordinated Universal Time)

1 44231U 19027A 26264.66028892 -.00000250 00000+0 00000+0 0 9990 2 44231 1.8962 74.2656 0008972 278.5602 29.9609 1.00270196 27042
UTC large
Height (km)
Speed (km/s)
/
Latitude / Longitude
Inclination (degrees)
Orbital Period (minutes)
Azimuth
Elevation
Range (km)
Doppler Factor

Next 0 passes for location: London (51.5072 / 0.1276)

No passes found over London.
BEIDOU-2 G8